Point Salines, Grenada

12:03 AM AST on June 27, 2017 (GMT -0400)
Point Salines International

Weather History for TGPY - September, 2012

Change the Weather History Date:

Wednesday, September 26, 2012

  Actual Average Record
Temperature  
Mean Temperature 82 °F -  
Max Temperature 87 °F 85 °F 89 °F (2008)
Min Temperature 77 °F 76 °F 73 °F (2010)
Cooling Degree Days 17    
Growing Degree Days 32 (Base 50)    
Moisture  
Dew Point 76 °F    
Average Humidity 83    
Maximum Humidity 94    
Minimum Humidity 70    
Precipitation  
Precipitation 0.00 in - - ()
Sea Level Pressure  
Sea Level Pressure 29.92 in    
Wind  
Wind Speed 6 mph ()    
Max Wind Speed 67 mph    
Max Gust Speed -    
Visibility 6.5 miles    
Events      
Averages and records for this station are not official NWS values.
T = Trace of Precipitation, MM = Missing Value Source: Averaged Metar Reports

Daily Weather History Graph

Daily Weather History Graph

Search for Another Location

Airport or City:

Trip Planner

Search our weather history database for the weather conditions in past years. The results will help you decide how hot, cold, wet, or windy it might be!

Date:

Astronomy

Sep. 26, 2012 Rise Set
Actual Time 5:56 AM AST 6:00 PM AST
Civil Twilight 5:35 AM AST 6:21 PM AST
Nautical Twilight 5:10 AM AST 6:45 PM AST
Astronomical Twilight 4:45 AM AST 7:10 PM AST
Moon 3:31 PM AST (9/26) 2:49 AM AST (9/26)
Length of Visible Light 12h 46m
Length of Day
12h 03m
Waxing Gibbous, 88% of the Moon is Illuminated
Sep 26
Waxing Gibbous
Sep 29
Full
Oct 8
Last Quarter
Oct 15
New
Oct 21
First Quarter

Hourly Weather History & Observations

Time (AST) Temp. Heat Index Dew Point Humidity Pressure Visibility Wind Dir Wind Speed Gust Speed Precip Events Conditions
12:00 AM 78.8 °F - 75.2 °F 89% 29.95 in 6.2 mi Calm Calm - N/A   Partly Cloudy
1:00 AM 78.8 °F - 75.2 °F 89% 29.92 in 6.2 mi Calm Calm - N/A   Partly Cloudy
2:00 AM - - - % 29.90 in 0 mi NNE 66.7 mph - -  
2:00 AM 78.8 °F - 75.2 °F 89% 29.89 in 6.2 mi Calm Calm - N/A   Scattered Clouds
3:00 AM 77.0 °F - 75.2 °F 94% 29.89 in 6.2 mi Calm Calm - N/A   Scattered Clouds
4:00 AM 77.0 °F - 73.4 °F 89% 29.89 in 6.2 mi Calm Calm - N/A   Scattered Clouds
5:00 AM 77 °F - 73 °F 85% 29.91 in 14 mi Calm Calm - -   Widespread Dust
5:00 AM 77.0 °F - 73.4 °F 89% 29.89 in 6.2 mi Calm Calm - N/A   Scattered Clouds
6:00 AM 77.0 °F - 71.6 °F 83% 29.92 in 6.2 mi Calm Calm - N/A   Scattered Clouds
7:00 AM 78.8 °F - 77.0 °F 94% 29.92 in 6.2 mi Calm Calm - N/A   Partly Cloudy
8:00 AM 84.2 °F 94.1 °F 77.0 °F 79% 29.95 in 6.2 mi East 5.8 mph - N/A   Partly Cloudy
9:00 AM 86.0 °F 96.9 °F 77.0 °F 74% 29.98 in 6.2 mi Calm Calm - N/A   Partly Cloudy
10:00 AM 84.2 °F 94.1 °F 77.0 °F 79% 29.98 in 6.2 mi SSE 8.1 mph - N/A   Scattered Clouds
11:00 AM 84 °F - 78 °F 76% 29.97 in 12 mi 2.3 mph - -   Mostly Cloudy
11:00 AM 84.2 °F 94.1 °F 77.0 °F 79% 29.95 in 6.2 mi Variable 2.3 mph - N/A   Mostly Cloudy
12:00 PM - - - N/A% - 6.2 mi East 11.5 mph - N/A   Scattered Clouds
1:00 PM 86.0 °F 96.9 °F 77.0 °F 74% 29.92 in 6.2 mi SSE 9.2 mph - N/A   Scattered Clouds
2:00 PM 86 °F - 78 °F 73% 29.90 in 7 mi SSE 8.1 mph - -   Partly Cloudy
2:00 PM 86.0 °F 99.3 °F 78.8 °F 79% 29.89 in 6.2 mi SSE 8.1 mph - N/A   Scattered Clouds
3:00 PM 87.8 °F 99.7 °F 77.0 °F 70% 29.89 in 6.2 mi SE 9.2 mph - N/A   Scattered Clouds
4:00 PM 86.0 °F 96.9 °F 77.0 °F 74% 29.86 in 6.2 mi SE 11.5 mph - N/A   Partly Cloudy
5:00 PM 86.0 °F 99.3 °F 78.8 °F 79% 29.86 in 6.2 mi SSE 9.2 mph - N/A   Partly Cloudy
6:00 PM 84.2 °F 94.1 °F 77.0 °F 79% 29.89 in 6.2 mi ESE 6.9 mph - N/A   Scattered Clouds
7:00 PM 80.6 °F 87.1 °F 77.0 °F 89% 29.89 in 6.2 mi Variable 2.3 mph - N/A   Scattered Clouds
8:00 PM 80.6 °F 87.1 °F 77.0 °F 89% 29.92 in 6.2 mi Variable 2.3 mph - N/A   Scattered Clouds
9:00 PM 80.6 °F 87.1 °F 77.0 °F 89% 29.95 in 6.2 mi Calm Calm - N/A   Partly Cloudy
10:00 PM 80.6 °F 86.2 °F 75.2 °F 84% 29.95 in 6.2 mi Calm Calm - N/A   Partly Cloudy
11:00 PM 78.8 °F - 75.2 °F 89% 29.95 in 6.2 mi Calm Calm - N/A   Partly Cloudy